| time (UTC) | temp F | wind direction | speed MPH | gust MPH | rain 1hr in | rain 24hr in | rain mn in | humidity % | barometer mb |
| 20260505090605 | 45 | 0 | 3.0 | 5.0 | 0.00 | 0.00 | 0.00 | 59 | 1004.2 |
| 20260505080605 | 46 | 0 | 1.0 | 3.0 | 0.00 | 0.00 | 0.00 | 56 | 1003.3 |
| 20260505080105 | 47 | 0 | 1.0 | 14.0 | 0.00 | 0.00 | 0.00 | 55 | 1003.3 |
| 20260505070605 | 48 | 0 | 4.0 | 14.0 | 0.00 | 0.00 | 0.00 | 57 | 1003.0 |
| 20260505070105 | 48 | 0 | 3.0 | 17.0 | 0.00 | 0.00 | 0.00 | 57 | 1003.0 |
| 20260505060105 | 50 | 0 | 6.0 | 14.0 | 0.00 | 0.00 | 0.00 | 53 | 1002.8 |
| 20260505050605 | 52 | 0 | 6.0 | 14.0 | 0.00 | 0.00 | 0.00 | 53 | 1001.8 |
| 20260505040605 | 54 | 0 | 8.0 | 17.0 | 0.00 | 0.00 | 0.00 | 55 | 1000.4 |
| 20260505040105 | 54 | 0 | 5.0 | 17.0 | 0.00 | 0.00 | 0.00 | 55 | 1000.3 |
| 20260505030605 | 56 | 0 | 7.0 | 21.0 | 0.00 | 0.00 | 0.00 | 50 | 998.7 |
| 20260505020605 | 60 | 0 | 4.0 | 13.0 | 0.00 | 0.00 | 0.00 | 48 | 997.8 |
| 20260505020113 | 60 | 0 | 3.0 | 21.0 | 0.00 | 0.00 | 0.00 | 46 | 997.6 |
| 20260505010605 | 63 | 0 | 8.0 | 20.0 | 0.00 | 0.00 | 0.00 | 40 | 996.3 |
| 20260505010106 | 63 | 0 | 14.0 | 24.0 | 0.00 | 0.00 | 0.00 | 38 | 996.1 |
| 20260505000605 | 66 | 0 | 13.0 | 20.0 | 0.00 | 0.00 | 0.00 | 39 | 995.1 |
| 20260505000104 | 66 | 0 | 12.0 | 25.0 | 0.00 | 0.00 | 0.00 | 40 | 995.0 |
| 20260504230605 | 69 | 0 | 17.0 | 26.0 | 0.00 | 0.00 | 0.00 | 37 | 994.6 |
| 20260504230105 | 69 | 0 | 18.0 | 28.0 | 0.00 | 0.00 | 0.00 | 38 | 994.6 |
| 20260504220604 | 72 | 0 | 9.0 | 15.0 | 0.00 | 0.00 | 0.00 | 41 | 993.9 |
| 20260504220105 | 72 | 0 | 16.0 | 26.0 | 0.00 | 0.00 | 0.00 | 40 | 993.9 |
| 20260504210105 | 74 | 0 | 16.0 | 29.0 | 0.00 | 0.00 | 0.00 | 42 | 993.2 |
| 20260504200605 | 74 | 0 | 10.0 | 24.0 | 0.00 | 0.00 | 0.00 | 42 | 993.2 |
| 20260504200105 | 74 | 0 | 12.0 | 28.0 | 0.00 | 0.00 | 0.00 | 42 | 993.2 |
| 20260504180605 | 74 | 0 | 16.0 | 21.0 | 0.00 | 0.00 | 0.00 | 39 | 993.5 |
| 20260504180105 | 74 | 0 | 11.0 | 30.0 | 0.00 | 0.00 | 0.00 | 40 | 993.5 |
| 20260504170605 | 73 | 0 | 14.0 | 26.0 | 0.00 | 0.00 | 0.00 | 38 | 994.1 |
| 20260504170105 | 73 | 0 | 13.0 | 28.0 | 0.00 | 0.00 | 0.00 | 39 | 994.0 |
| 20260504160105 | 70 | 0 | 10.0 | 25.0 | 0.00 | 0.00 | 0.00 | 42 | 994.9 |
| 20260504140604 | 65 | 0 | 6.0 | 14.0 | 0.00 | 0.00 | 0.00 | 46 | 996.4 |
| 20260504140104 | 64 | 0 | 6.0 | 15.0 | 0.00 | 0.00 | 0.00 | 46 | 996.5 |
| 20260504130605 | 60 | 0 | 5.0 | 10.0 | 0.00 | 0.00 | 0.00 | 53 | 997.4 |
| 20260504130104 | 59 | 0 | 6.0 | 15.0 | 0.00 | 0.00 | 0.00 | 55 | 997.6 |
| 20260504120105 | 51 | 0 | 0.0 | 3.0 | 0.00 | 0.00 | 0.00 | 72 | 998.1 |
| 20260504110604 | 49 | 0 | 0.0 | 3.0 | 0.00 | 0.00 | 0.00 | 76 | 998.5 |
| 20260504110105 | 49 | 0 | 0.0 | 2.0 | 0.00 | 0.00 | 0.00 | 75 | 998.4 |